| time (UTC) | temp C | wind direction | speed KPH | gust KPH | rain 1hr cm | rain 24hr cm | rain mn cm | humidity % | barometer mb |
| 20260906183602 | 32 | 68 | 4.8 | 6.4 | 0.00 | 0.00 | 0.00 | 63 | 1012.9 |
| 20260906182402 | 32 | 0 | 0.0 | 6.4 | 0.00 | 0.00 | 0.00 | 66 | 1012.9 |
| 20260906181302 | 32 | 225 | 3.2 | 6.4 | 0.00 | 0.00 | 0.00 | 66 | 1013.2 |
| 20260906180203 | 31 | 180 | 8.0 | 8.0 | 0.00 | 0.00 | 0.00 | 70 | 1012.9 |
| 20260906174003 | 30 | 0 | 3.2 | 6.4 | 0.00 | 0.00 | 0.00 | 70 | 1013.5 |
| 20260906172902 | 30 | 180 | 1.6 | 8.0 | 0.00 | 0.00 | 0.00 | 71 | 1013.2 |
| 20260906171802 | 29 | 180 | 1.6 | 4.8 | 0.00 | 0.00 | 0.00 | 75 | 1013.5 |
| 20260906170702 | 29 | 248 | 8.0 | 8.0 | 0.00 | 0.00 | 0.00 | 76 | 1013.9 |
| 20260906165603 | 29 | 113 | 3.2 | 3.2 | 0.00 | 0.00 | 0.00 | 78 | 1013.5 |
| 20260906164402 | 28 | 270 | 1.6 | 3.2 | 0.00 | 0.00 | 0.00 | 79 | 1013.5 |
| 20260906163302 | 27 | 270 | 1.6 | 3.2 | 0.00 | 0.00 | 0.00 | 80 | 1013.5 |
| 20260906162202 | 27 | 158 | 1.6 | 6.4 | 0.00 | 0.00 | 0.00 | 81 | 1013.5 |
| 20260906161103 | 27 | 135 | 0.0 | 0.0 | 0.00 | 0.00 | 0.00 | 83 | 1013.5 |
| 20260906154602 | 26 | 158 | 3.2 | 3.2 | 0.00 | 0.00 | 0.00 | 81 | 1014.2 |
| 20260906153502 | 26 | 158 | 0.0 | 0.0 | 0.00 | 0.00 | 0.00 | 81 | 1014.2 |
| 20260906152306 | 26 | 158 | 0.0 | 3.2 | 0.00 | 0.00 | 0.00 | 81 | 1014.2 |
| 20260906151202 | 26 | 113 | 4.8 | 9.7 | 0.00 | 0.00 | 0.00 | 81 | 1014.2 |
| 20260906144802 | 26 | 180 | 0.0 | 4.8 | 0.00 | 0.00 | 0.00 | 81 | 1013.5 |
| 20260906142602 | 26 | 248 | 0.0 | 0.0 | 0.00 | 0.00 | 0.00 | 81 | 1013.2 |
| 20260906141402 | 26 | 270 | 1.6 | 3.2 | 0.00 | 0.00 | 0.00 | 81 | 1013.2 |
| 20260906140303 | 26 | 158 | 3.2 | 3.2 | 0.00 | 0.00 | 0.00 | 81 | 1013.2 |
| 20260906135202 | 26 | 180 | 6.4 | 6.4 | 0.00 | 0.00 | 0.00 | 81 | 1013.5 |
| 20260906134102 | 26 | 158 | 0.0 | 3.2 | 0.00 | 0.00 | 0.00 | 81 | 1013.5 |
| 20260906130702 | 26 | 203 | 0.0 | 1.6 | 0.00 | 0.00 | 0.00 | 83 | 1013.5 |
| 20260906125602 | 26 | 180 | 0.0 | 1.6 | 0.00 | 0.00 | 0.00 | 83 | 1013.5 |
| 20260906123302 | 25 | 203 | 0.0 | 1.6 | 0.00 | 0.00 | 0.00 | 83 | 1013.2 |
| 20260906121102 | 25 | 293 | 0.0 | 1.6 | 0.00 | 0.00 | 0.00 | 85 | 1012.9 |
| 20260906115902 | 25 | 180 | 6.4 | 6.4 | 0.00 | 0.00 | 0.00 | 85 | 1012.9 |
| 20260906114802 | 25 | 180 | 0.0 | 3.2 | 0.00 | 0.00 | 0.00 | 85 | 1012.9 |
| 20260906113702 | 25 | 203 | 0.0 | 0.0 | 0.00 | 0.00 | 0.00 | 86 | 1012.9 |
| 20260906112602 | 24 | 180 | 0.0 | 0.0 | 0.00 | 0.00 | 0.00 | 86 | 1012.5 |
| 20260906111402 | 24 | 225 | 0.0 | 0.0 | 0.00 | 0.00 | 0.00 | 86 | 1012.5 |
| 20260906104502 | 25 | 203 | 0.0 | 0.0 | 0.00 | 0.00 | 0.00 | 85 | 1012.5 |
| 20260906103402 | 25 | 225 | 0.0 | 0.0 | 0.00 | 0.00 | 0.00 | 85 | 1012.5 |
| 20260906101902 | 25 | 225 | 0.0 | 0.0 | 0.00 | 0.00 | 0.00 | 85 | 1012.2 |
| 20260906100802 | 25 | 158 | 0.0 | 0.0 | 0.00 | 0.00 | 0.00 | 85 | 1012.5 |
| 20260906094602 | 25 | 158 | 0.0 | 0.0 | 0.00 | 0.00 | 0.00 | 83 | 1012.5 |
| 20260906093002 | 25 | 158 | 0.0 | 0.0 | 0.00 | 0.00 | 0.00 | 81 | 1012.5 |
| 20260906091402 | 26 | 225 | 0.0 | 0.0 | 0.00 | 0.00 | 0.00 | 81 | 1012.5 |
| 20260906090302 | 26 | 180 | 0.0 | 0.0 | 0.00 | 0.00 | 0.00 | 81 | 1012.5 |
| 20260906085002 | 26 | 270 | 0.0 | 0.0 | 0.00 | 0.00 | 0.00 | 81 | 1012.9 |
| 20260906083802 | 26 | 225 | 0.0 | 0.0 | 0.00 | 0.00 | 0.00 | 81 | 1012.5 |
| 20260906082602 | 26 | 225 | 0.0 | 0.0 | 0.00 | 0.00 | 0.00 | 81 | 1012.5 |
| 20260906081502 | 26 | 203 | 0.0 | 1.6 | 0.00 | 0.00 | 0.00 | 81 | 1012.5 |
| 20260906080402 | 26 | 203 | 0.0 | 1.6 | 0.00 | 0.00 | 0.00 | 81 | 1012.5 |
| 20260906074103 | 26 | 225 | 0.0 | 3.2 | 0.00 | 0.00 | 0.00 | 81 | 1012.2 |
| 20260906072802 | 26 | 270 | 0.0 | 4.8 | 0.00 | 0.00 | 0.00 | 81 | 1012.2 |
| 20260906071602 | 26 | 180 | 0.0 | 1.6 | 0.00 | 0.00 | 0.00 | 81 | 1012.5 |
| 20260906065202 | 26 | 248 | 0.0 | 3.2 | 0.00 | 0.00 | 0.00 | 81 | 1012.5 |
| 20260906064102 | 26 | 180 | 3.2 | 3.2 | 0.00 | 0.00 | 0.00 | 81 | 1012.5 |
| 20260906063002 | 26 | 248 | 0.0 | 4.8 | 0.00 | 0.00 | 0.00 | 81 | 1012.5 |
| 20260906061902 | 27 | 180 | 0.0 | 0.0 | 0.00 | 0.00 | 0.00 | 81 | 1012.9 |
| 20260906054402 | 27 | 225 | 0.0 | 1.6 | 0.00 | 0.00 | 0.00 | 80 | 1012.9 |
| 20260906053401 | 27 | 248 | 1.6 | 1.6 | 0.00 | 0.00 | 0.00 | 80 | 1012.5 |
| 20260906052305 | 27 | 270 | 1.6 | 3.2 | 0.00 | 0.00 | 0.00 | 80 | 1012.5 |
| 20260906051202 | 27 | 225 | 4.8 | 4.8 | 0.00 | 0.00 | 0.00 | 80 | 1012.5 |
| 20260906045902 | 27 | 225 | 1.6 | 3.2 | 0.00 | 0.00 | 0.00 | 80 | 1012.9 |
| 20260906044803 | 27 | 270 | 1.6 | 3.2 | 0.00 | 0.00 | 0.00 | 79 | 1012.9 |
| 20260906043702 | 27 | 248 | 1.6 | 3.2 | 0.00 | 0.00 | 0.00 | 78 | 1012.9 |
| 20260906042604 | 27 | 225 | 1.6 | 3.2 | 0.00 | 0.00 | 0.00 | 78 | 1012.9 |
| 20260906041602 | 27 | 248 | 0.0 | 3.2 | 0.00 | 0.00 | 0.00 | 78 | 1012.9 |
| 20260906040502 | 28 | 225 | 0.0 | 3.2 | 0.00 | 0.00 | 0.00 | 78 | 1012.9 |
| 20260906035402 | 28 | 225 | 0.0 | 3.2 | 0.00 | 0.00 | 0.00 | 78 | 1012.9 |
| 20260906034302 | 28 | 270 | 0.0 | 0.0 | 0.00 | 0.00 | 0.00 | 78 | 1012.9 |
| 20260906031803 | 28 | 203 | 0.0 | 0.0 | 0.00 | 0.00 | 0.00 | 78 | 1012.5 |
| 20260906030802 | 28 | 248 | 0.0 | 0.0 | 0.00 | 0.00 | 0.00 | 76 | 1012.5 |
| 20260906025702 | 28 | 248 | 1.6 | 3.2 | 0.00 | 0.00 | 0.00 | 76 | 1012.5 |
| 20260906024602 | 28 | 225 | 3.2 | 3.2 | 0.00 | 0.00 | 0.00 | 76 | 1012.2 |
| 20260906023503 | 28 | 180 | 1.6 | 1.6 | 0.00 | 0.00 | 0.00 | 76 | 1011.5 |
| 20260906022402 | 28 | 270 | 1.6 | 3.2 | 0.00 | 0.00 | 0.00 | 76 | 1011.9 |
| 20260906021202 | 28 | 270 | 0.0 | 0.0 | 0.00 | 0.00 | 0.00 | 75 | 1011.5 |
| 20260906020103 | 29 | 180 | 1.6 | 3.2 | 0.00 | 0.00 | 0.00 | 75 | 1011.5 |
| 20260906015002 | 29 | 248 | 3.2 | 3.2 | 0.00 | 0.00 | 0.00 | 75 | 1011.5 |
| 20260906013902 | 29 | 225 | 3.2 | 3.2 | 0.00 | 0.00 | 0.00 | 74 | 1011.2 |
| 20260906012702 | 30 | 203 | 0.0 | 1.6 | 0.00 | 0.00 | 0.00 | 73 | 1011.2 |
| 20260906010503 | 30 | 225 | 0.0 | 1.6 | 0.00 | 0.00 | 0.00 | 70 | 1010.8 |
| 20260906004203 | 31 | 203 | 3.2 | 3.2 | 0.00 | 0.00 | 0.00 | 68 | 1010.8 |
| 20260906003102 | 31 | 225 | 1.6 | 3.2 | 0.00 | 0.00 | 0.00 | 66 | 1011.2 |
| 20260906001902 | 31 | 180 | 0.0 | 1.6 | 0.00 | 0.00 | 0.00 | 65 | 1010.8 |
| 20260906000802 | 32 | 45 | 3.2 | 8.0 | 0.00 | 0.00 | 0.00 | 65 | 1010.8 |
| 20260905235602 | 32 | 0 | 1.6 | 3.2 | 0.00 | 0.00 | 0.00 | 63 | 1010.5 |
| 20260905234502 | 32 | 180 | 3.2 | 4.8 | 0.00 | 0.00 | 0.00 | 61 | 1010.5 |
| 20260905233402 | 33 | 158 | 1.6 | 4.8 | 0.00 | 0.00 | 0.00 | 61 | 1010.5 |
| 20260905232305 | 33 | 203 | 1.6 | 1.6 | 0.00 | 0.00 | 0.00 | 60 | 1010.5 |
| 20260905231103 | 33 | 203 | 3.2 | 4.8 | 0.00 | 0.00 | 0.00 | 60 | 1010.8 |
| 20260905230003 | 35 | 203 | 0.0 | 1.6 | 0.00 | 0.00 | 0.00 | 59 | 1010.8 |
| 20260905224802 | 35 | 270 | 1.6 | 3.2 | 0.00 | 0.00 | 0.00 | 58 | 1010.5 |
| 20260905223602 | 35 | 113 | 4.8 | 4.8 | 0.00 | 0.00 | 0.00 | 56 | 1010.5 |
| 20260905222502 | 35 | 180 | 1.6 | 3.2 | 0.00 | 0.00 | 0.00 | 55 | 1010.5 |
| 20260905221403 | 35 | 158 | 1.6 | 4.8 | 0.00 | 0.00 | 0.00 | 55 | 1010.2 |
| 20260905220202 | 34 | 180 | 3.2 | 6.4 | 0.00 | 0.00 | 0.00 | 56 | 1009.8 |
| 20260905215103 | 34 | 180 | 3.2 | 8.0 | 0.00 | 0.00 | 0.00 | 55 | 1010.2 |
| 20260905214003 | 35 | 45 | 8.0 | 9.7 | 0.00 | 0.00 | 0.00 | 55 | 1010.2 |
| 20260905211702 | 33 | 270 | 3.2 | 3.2 | 0.00 | 0.00 | 0.00 | 56 | 1010.5 |
| 20260905205502 | 33 | 225 | 3.2 | 6.4 | 0.00 | 0.00 | 0.00 | 55 | 1010.8 |
| 20260905204402 | 33 | 270 | 1.6 | 4.8 | 0.00 | 0.00 | 0.00 | 55 | 1011.2 |
| 20260905203202 | 33 | 180 | 4.8 | 6.4 | 0.00 | 0.00 | 0.00 | 55 | 1011.2 |
| 20260905202102 | 32 | 225 | 3.2 | 6.4 | 0.00 | 0.00 | 0.00 | 56 | 1011.5 |
| 20260905201002 | 32 | 293 | 4.8 | 6.4 | 0.00 | 0.00 | 0.00 | 55 | 1011.9 |
| 20260905195902 | 32 | 270 | 4.8 | 8.0 | 0.00 | 0.00 | 0.00 | 56 | 1012.2 |
| 20260905194702 | 32 | 248 | 3.2 | 8.0 | 0.00 | 0.00 | 0.00 | 59 | 1012.5 |
| 20260905192402 | 31 | 225 | 4.8 | 8.0 | 0.00 | 0.00 | 0.00 | 58 | 1012.5 |
| 20260905190202 | 31 | 248 | 4.8 | 6.4 | 0.00 | 0.00 | 0.00 | 59 | 1013.2 |
| 20260905185102 | 31 | 225 | 8.0 | 12.9 | 0.00 | 0.00 | 0.00 | 63 | 1013.2 |